This is the latest recevied weather packets stored in our database for station/object DW9280. If no packets are shown the sender has not sent any weather packets the latest 10 day(s).
| Time | Temp. | Humidity | Pressure | Rain* | Wind** | Luminosity | Snow |
|---|---|---|---|---|---|---|---|
| 1778231045 | 15° C | 67% | 1018.8 hPa | 0 mm | - | 673 W/m² | - |
| 1778230745 | 15° C | 68% | 1018.9 hPa | 0 mm | - | 675 W/m² | - |
| 1778230443 | 15° C | 69% | 1018.8 hPa | 0 mm | - | 664 W/m² | - |
| 1778230144 | 15° C | 70% | 1018.9 hPa | 0 mm | - | 659 W/m² | - |
| 1778229844 | 14.44° C | 69% | 1018.9 hPa | 0 mm | - | 643 W/m² | - |
| 1778229545 | 14.44° C | 68% | 1018.9 hPa | 0 mm | - | 640 W/m² | - |
| 1778229243 | 14.44° C | 70% | 1018.9 hPa | 0 mm | - | 622 W/m² | - |
| 1778228943 | 14.44° C | 70% | 1018.9 hPa | 0 mm | - | 619 W/m² | - |
| 1778228642 | 14.44° C | 72% | 1019 hPa | 0 mm | - | 596 W/m² | - |
| 1778228345 | 13.89° C | 72% | 1019 hPa | 0 mm | - | 594 W/m² | - |
| 1778228042 | 13.33° C | 72% | 1018.9 hPa | 0 mm | - | 563 W/m² | - |
| 1778227744 | 13.33° C | 73% | 1018.9 hPa | 0 mm | - | 476 W/m² | - |
| 1778227443 | 13.33° C | 74% | 1018.9 hPa | 0 mm | - | 403 W/m² | - |
| 1778227142 | 13.33° C | 74% | 1018.9 hPa | 0 mm | - | 374 W/m² | - |
| 1778226842 | 13.33° C | 74% | 1018.9 hPa | 0 mm | - | 383 W/m² | - |
| 1778226544 | 12.78° C | 75% | 1018.9 hPa | 0 mm | - | 401 W/m² | - |
| 1778226243 | 13.33° C | 75% | 1019 hPa | 0 mm | - | 446 W/m² | - |
| 1778225942 | 12.78° C | 76% | 1018.9 hPa | 0 mm | - | 461 W/m² | - |
| 1778225761 | 12.78° C | 76% | 1018.9 hPa | 0 mm | - | 483 W/m² | - |
| 1778225343 | 12.78° C | 77% | 1018.9 hPa | 0 mm | - | 480 W/m² | - |
| 1778225045 | 12.22° C | 77% | 1018.9 hPa | 0 mm | - | 504 W/m² | - |
| 1778224744 | 12.22° C | 79% | 1019 hPa | 0 mm | - | 526 W/m² | - |
| 1778224444 | 11.67° C | 80% | 1018.9 hPa | 0 mm | - | 550 W/m² | - |
| 1778224143 | 11.67° C | 80% | 1018.9 hPa | 0 mm | - | 243 W/m² | - |
| 1778223844 | 11.67° C | 80% | 1018.9 hPa | 0 mm | - | 244 W/m² | - |
* Rain latest hour (hover to see other rain measurements)
** Current wind speed in m/s (hover to see current wind gust speed)